Location: Poprad
(49.0500°N, 20.3000°E)
Time: 06:37:42
(UTC+02:00)

UKube-1 - Visible Passes

Search period start: 16 April 2024 00:00
Search period end: 26 April 2024 00:00
Orbit: 589 x 591 km, 98.3° (Epoch: 15 April)

Date Brightness Start Highest point End Pass type
(mag) Time Alt. Az. Time Alt. Az. Time Alt. Az.
16 Apr ? 01:21:32 10° NNE 01:23:59 31° NE 01:23:59 31° NE visible
16 Apr ? 02:57:41 10° NNW 03:00:32 20° WNW 03:00:32 20° WNW visible
17 Apr ? 01:29:30 10° NNE 01:32:12 36° NE 01:32:12 36° NE visible
17 Apr ? 03:05:55 10° NNW 03:08:42 18° WNW 03:08:44 18° WNW visible
18 Apr ? 01:37:28 10° NNE 01:40:23 43° NNE 01:40:23 43° NNE visible
18 Apr ? 03:14:11 10° NNW 03:16:37 15° WNW 03:16:55 15° WNW visible
19 Apr ? 01:45:26 10° NNE 01:48:32 49° NNE 01:48:32 49° NNE visible
19 Apr ? 03:22:31 10° NNW 03:24:28 13° WNW 03:25:05 13° WNW visible
20 Apr ? 01:53:23 10° NNE 01:56:40 54° N 01:56:40 54° N visible
20 Apr ? 03:31:01 10° NW 03:32:20 11° NW 03:33:13 11° WNW visible
21 Apr ? 00:27:25 10° ENE 00:28:14 12° ENE 00:28:14 12° ENE visible
21 Apr ? 02:01:20 10° N 02:04:47 55° NNW 02:04:47 55° NNW visible
22 Apr ? 00:34:55 10° NE 00:36:20 15° ENE 00:36:20 15° ENE visible
22 Apr ? 02:09:17 10° N 02:12:52 52° NW 02:12:52 52° NW visible
23 Apr ? 00:42:31 10° NE 00:44:24 17° ENE 00:44:24 17° ENE visible
23 Apr ? 02:17:13 10° N 02:20:56 46° NW 02:20:56 46° NW visible
24 Apr ? 00:50:09 10° NE 00:52:26 21° ENE 00:52:26 21° ENE visible
24 Apr ? 02:25:09 10° N 02:28:58 40° WNW 02:28:58 40° WNW visible
25 Apr ? 00:57:49 10° NE 01:00:27 24° ENE 01:00:27 24° ENE visible
25 Apr ? 02:33:05 10° N 02:36:52 34° WNW 02:37:00 34° WNW visible
